Theta_e
301 301 301 302 302 302 303 304 304 304 304 304 304 306 303 303 300 310 313 314 311 305 296 297 294 295 297 298 297 298 296 295 297 295 297 294 297 296 295 294 293 294 293 294 293 294 293 293 293 297 297 301 302 303 304 304 303 302 302 301 302 300 294 292 293 297 298 300 302 303 302 302 298 299 301 299 296 298 295 293 297 292 293 290 291 286 291
301 301 301 302 302 302 303 304 305 305 304 303 304 303 303 303 303 305 311 315 311 302 289 290 291 295 298 297 296 298 296 296 295 295 296 294 295 294 294 295 296 294 296 295 292 296 289 295 295 296 299 298 304 304 304 304 302 301 301 298 303 292 295 294 290 289 292 296 298 298 302 301 300 300 302 301 301 300 300 300 300 290 293 294 289 285 292
300 301 301 302 302 303 303 304 305 305 304 304 304 304 305 304 306 305 307 311 309 297 298 295 292 295 295 294 293 294 296 297 297 297 296 298 297 296 294 296 297 295 297 294 296 296 294 293 297 297 299 301 304 303 304 304 305 306 308 306 304 295 296 293 287 284 282 282 284 286 290 295 300 300 300 299 299 300 298 290 293 288 294 295 289 289 296
301 301 301 302 302 303 303 304 304 304 303 303 304 304 304 300 290 300 302 306 304 302 303 301 297 294 295 291 294 295 293 296 297 297 296 298 298 298 297 297 297 294 294 293 293 294 297 294 296 298 299 301 301 303 305 306 307 306 306 306 304 297 300 298 295 292 289 291 294 298 299 299 294 297 299 298 299 300 301 299 292 289 294 292 296 297 297
301 301 301 302 302 302 303 304 304 303 303 303 305 306 305 302 295 293 292 300 301 298 301 298 298 293 298 289 294 292 293 294 295 298 295 297 296 296 295 294 292 294 293 293 293 295 294 297 296 296 298 300 300 303 303 305 306 305 303 306 303 300 293 297 299 297 295 296 297 298 299 297 298 297 298 299 299 300 299 292 291 300 293 288 301 302 299
300 301 301 302 302 302 303 304 305 303 303 304 305 302 304 294 299 300 304 296 291 293 293 298 297 297 298 293 296 293 292 293 291 295 296 296 297 294 294 294 293 293 292 294 290 293 293 295 292 297 297 298 300 301 302 301 303 303 303 305 302 297 291 298 298 296 296 298 298 299 298 298 297 297 298 298 300 300 297 296 298 301 292 289 299 303 298
300 301 301 301 302 302 303 304 305 303 302 303 304 301 303 303 301 301 303 295 297 298 298 298 297 296 295 294 294 292 293 292 294 294 295 295 294 295 288 292 292 293 294 294 292 293 289 289 297 296 297 298 298 295 299 301 302 300 302 301 304 298 292 290 294 292 293 296 297 298 297 297 297 296 296 298 299 299 300 299 301 301 301 302 300 296 291
300 301 301 301 302 302 303 304 304 303 302 304 304 305 301 299 298 296 301 301 298 298 299 298 296 293 294 290 293 293 292 292 295 296 294 290 293 295 293 292 293 293 294 294 293 292 293 293 290 297 298 297 299 299 298 297 300 299 298 301 303 299 291 293 294 291 287 291 295 297 298 297 295 295 296 297 298 297 297 297 298 301 301 301 296 293 288
300 301 301 301 302 302 303 304 305 303 302 303 304 305 305 306 306 306 298 293 296 297 297 296 294 291 293 292 293 294 293 292 294 295 297 294 292 293 292 293 294 294 293 294 293 294 294 295 295 296 294 294 296 296 297 295 294 295 298 300 301 300 293 297 295 289 287 293 294 295 297 297 295 293 293 293 294 293 294 292 293 296 295 297 296 292 288
300 300 301 301 302 303 303 304 305 303 301 304 305 302 307 308 307 306 302 292 292 294 295 295 293 289 292 294 293 292 292 293 294 290 296 296 295 295 294 295 295 294 294 293 294 296 296 296 296 297 298 300 298 297 292 289 289 290 295 298 297 298 296 292 292 288 288 291 294 293 295 294 289 286 288 291 293 295 295 295 295 293 294 294 293 294 292
300 300 301 301 302 302 303 304 304 304 305 304 305 305 307 305 302 302 301 292 292 294 294 293 292 292 294 293 292 293 293 293 293 291 289 296 296 296 296 296 294 292 294 296 297 299 299 298 298 298 297 298 299 298 298 298 295 290 289 294 297 298 297 293 297 287 286 289 290 293 290 283 284 288 292 292 291 294 293 291 291 293 296 293 296 293 293
300 300 300 301 302 302 303 303 304 305 304 305 305 306 309 308 305 302 296 290 290 295 293 291 293 293 293 292 292 292 292 292 293 295 293 295 297 298 296 296 296 290 298 300 300 300 300 299 299 299 299 300 300 300 299 297 296 295 294 294 296 295 295 294 296 290 287 290 289 285 280 282 287 294 293 294 293 294 291 290 291 292 294 294 292 291 291
299 300 300 301 302 302 303 303 304 304 304 306 306 306 310 309 306 301 297 293 289 292 290 291 293 292 292 292 292 292 293 294 295 295 295 295 295 296 297 295 295 296 298 298 298 299 297 296 297 297 297 299 299 299 297 295 295 299 300 299 297 293 293 293 291 293 292 289 287 280 280 286 291 292 293 294 294 294 293 289 291 291 292 292 289 289 289
299 300 300 301 301 302 303 303 304 304 304 304 305 308 308 306 305 300 298 292 290 294 294 292 292 292 292 292 291 292 293 293 295 296 295 297 295 295 296 296 297 299 298 299 297 297 296 297 291 293 294 296 295 294 294 294 294 294 297 299 301 298 298 295 289 292 286 288 287 284 286 286 287 287 287 289 287 288 288 286 288 291 292 292 289 289 289
299 299 300 301 301 302 303 303 304 304 304 303 308 308 308 308 307 305 302 298 290 291 293 287 290 291 291 291 291 292 292 293 293 294 296 297 294 295 296 296 299 299 301 298 295 296 293 293 287 286 290 288 282 285 292 291 294 296 297 298 300 300 294 296 291 287 292 287 284 284 284 281 283 287 290 292 292 291 291 290 289 292 293 293 291 289 290
299 299 300 301 301 302 303 303 303 304 304 303 307 306 307 309 307 304 302 297 293 286 290 293 293 292 291 291 292 291 290 290 292 293 293 294 293 294 296 297 299 301 299 297 298 294 292 288 285 286 285 287 291 288 286 291 289 293 297 297 298 298 299 295 292 289 290 288 285 283 281 282 287 288 291 293 294 293 294 290 286 290 293 293 292 289 290
299 300 300 301 301 302 303 303 303 304 305 303 306 306 307 307 306 304 300 297 295 287 293 294 295 295 293 291 295 292 293 290 291 289 289 291 292 292 295 297 300 299 297 297 293 292 289 288 288 290 290 291 287 286 290 287 284 286 291 292 294 293 292 293 291 288 289 288 285 282 284 281 287 291 292 294 295 295 292 283 284 290 293 294 293 291 291
299 299 300 301 301 302 303 303 303 304 305 304 307 307 306 308 308 306 301 296 291 290 294 295 294 292 291 292 291 293 294 295 294 294 292 293 292 293 293 296 293 294 298 292 291 288 288 288 287 287 286 290 290 291 283 287 283 282 284 287 288 288 289 291 288 290 286 286 284 285 285 289 292 292 294 295 298 294 285 282 286 293 294 294 294 293 293
299 299 300 300 301 302 303 303 304 304 305 304 308 308 305 307 306 306 302 297 294 288 294 296 296 295 296 296 296 294 294 293 294 291 290 291 293 293 293 294 296 291 294 290 291 287 285 283 286 287 287 287 291 283 287 285 282 284 286 286 287 287 288 288 290 287 287 288 286 284 284 288 291 293 294 297 294 285 284 290 296 297 295 295 295 294 295
299 299 300 300 301 302 303 304 304 304 305 305 307 303 304 309 308 307 302 295 295 292 295 296 296 294 296 295 293 293 295 295 294 292 290 289 296 295 294 290 294 296 293 294 287 290 287 285 287 290 287 286 286 287 286 284 288 286 286 285 285 283 285 286 286 287 288 288 285 283 279 286 293 292 294 294 288 287 290 294 297 298 295 295 295 296 294
298 299 300 300 301 302 303 304 304 304 305 305 304 308 303 309 311 312 313 302 296 291 292 298 297 297 297 296 298 295 295 292 293 292 293 294 296 294 288 287 292 293 290 291 287 287 289 286 289 288 290 289 287 290 284 285 287 291 291 289 288 288 286 287 286 288 285 284 280 279 283 288 292 291 286 288 289 292 293 294 294 296 296 296 295 295 295
298 299 300 300 301 302 303 304 304 304 305 304 302 309 301 306 311 309 310 308 298 294 296 299 299 300 300 300 299 300 297 296 297 297 295 293 298 295 294 295 294 295 295 296 293 290 293 291 292 289 287 287 292 286 289 286 283 288 293 293 284 291 287 288 284 288 286 282 283 287 290 291 291 291 291 291 293 295 297 297 296 294 294 297 295 294 295
298 299 300 300 301 302 303 303 304 304 305 304 305 311 302 304 305 309 313 298 301 301 302 300 301 300 301 300 300 301 301 300 301 302 299 296 293 296 296 296 294 297 297 298 295 295 294 294 289 293 290 291 288 287 290 289 286 289 285 292 291 294 294 295 291 286 290 290 290 291 290 291 291 292 292 292 293 294 295 294 293 294 295 295 294 294 294
298 299 299 300 301 302 302 303 304 304 304 303 302 310 305 306 306 310 302 301 296 293 296 300 296 291 294 294 298 301 300 299 299 300 303 301 293 293 298 297 296 299 297 297 296 296 294 294 293 294 287 291 294 287 284 284 286 291 289 288 291 294 295 294 288 289 288 282 290 288 289 291 291 291 292 292 293 292 293 292 292 292 294 294 296 294 294
298 299 299 300 301 302 302 303 304 304 304 303 305 305 310 307 307 307 301 291 293 293 287 290 293 297 298 300 301 299 299 300 300 301 302 302 299 297 293 296 297 299 296 298 301 299 295 291 291 290 285 291 294 286 292 287 286 293 287 289 290 289 296 291 291 290 286 283 289 291 292 292 293 293 291 289 290 290 291 291 293 293 294 295 295 295 293
298 299 299 300 300 301 302 303 303 304 304 303 305 309 306 303 307 309 305 303 301 298 289 288 292 300 300 298 296 297 300 301 300 300 300 299 301 302 299 300 299 301 300 301 302 296 294 293 292 291 289 288 297 289 288 292 291 294 290 287 293 293 295 288 291 287 288 290 291 291 292 293 293 294 294 293 292 290 290 290 291 292 292 293 295 296 295
298 299 299 300 300 301 302 303 303 303 304 303 306 308 307 306 309 307 305 302 295 290 292 288 293 296 298 296 298 300 300 301 302 301 300 299 298 301 303 302 300 301 300 299 300 296 295 293 292 290 293 291 296 293 294 291 291 288 288 292 296 293 289 292 290 286 286 286 289 293 287 285 290 293 295 295 294 293 292 292 291 291 291 292 292 293 294
298 299 299 300 301 301 302 303 303 303 303 303 307 307 308 306 307 308 309 306 303 291 290 290 291 295 301 296 299 300 301 302 301 300 299 300 301 302 302 300 301 300 299 297 292 292 291 288 288 291 292 294 291 288 294 293 293 290 290 291 294 291 291 291 287 286 285 290 292 294 293 292 293 294 296 296 296 295 293 293 293 293 293 293 292 291 292
298 299 299 300 301 301 302 303 303 303 303 303 308 309 306 307 309 309 309 309 309 299 294 295 298 297 289 293 301 299 300 302 301 300 300 299 300 300 300 300 299 298 297 295 293 292 290 289 292 291 289 293 293 288 290 285 285 284 288 294 295 295 297 295 294 294 294 295 295 296 294 291 294 296 296 296 296 295 293 294 295 295 295 295 294 294 292
298 299 299 300 301 301 302 303 303 303 302 307 307 305 298 299 306 307 307 308 307 306 293 290 286 289 299 298 297 298 298 300 300 300 300 299 299 299 299 300 299 299 298 294 292 289 290 290 291 295 296 299 291 289 287 287 285 287 294 295 296 297 297 297 298 295 293 297 297 297 296 296 297 298 298 298 298 297 294 295 295 295 295 295 295 294 295
298 299 299 300 301 301 302 303 303 303 303 307 306 294 292 289 299 307 304 309 308 304 295 293 289 294 293 298 299 296 297 297 298 299 299 300 299 299 300 300 299 298 293 293 292 291 292 289 290 291 296 294 293 289 286 285 283 286 292 295 295 296 296 297 298 298 298 297 298 298 298 297 298 297 297 297 298 298 297 297 297 296 296 296 295 294 294
298 299 299 300 300 301 302 303 303 303 308 306 302 300 300 301 303 304 305 307 309 302 293 289 288 289 288 293 298 299 297 298 300 299 298 301 298 300 299 299 295 298 294 292 292 291 290 291 290 292 292 293 292 288 288 286 284 285 292 294 296 296 297 297 297 297 298 298 296 295 294 295 296 294 293 297 297 298 297 297 298 298 296 297 296 296 295
298 299 299 300 300 301 302 303 302 304 306 304 301 301 303 301 301 303 305 311 308 300 301 292 287 288 288 291 298 297 298 301 297 297 294 299 297 299 295 300 298 297 299 294 290 288 293 290 290 289 292 298 289 288 288 285 287 292 293 294 295 296 296 297 297 297 297 297 297 291 290 292 294 296 296 297 297 297 297 296 297 297 297 296 295 295 295
298 299 299 300 301 302 302 302 302 299 302 306 301 301 306 303 306 302 307 310 303 302 297 290 287 287 287 295 292 294 298 293 293 296 289 296 299 298 293 296 296 290 293 292 292 292 292 291 289 288 293 289 290 287 283 287 292 292 293 294 295 295 296 295 295 295 296 297 297 297 296 297 297 297 297 296 297 298 297 297 296 295 295 295 295 295 295
298 299 299 300 301 301 301 300 307 305 301 300 300 304 307 302 301 303 307 308 292 291 290 290 291 287 286 288 287 291 298 296 290 294 290 293 299 295 295 291 292 289 288 299 290 290 288 289 295 288 285 291 287 283 285 289 290 292 293 294 294 294 294 293 293 295 296 297 296 296 297 297 296 294 294 295 295 296 296 295 295 295 294 294 294 295 295
298 299 300 300 301 301 305 305 306 300 298 298 300 303 302 304 305 311 311 309 305 293 289 289 291 288 288 284 284 288 298 293 295 296 294 293 293 296 296 291 286 288 294 291 288 291 288 292 290 284 289 285 283 286 288 291 291 291 293 293 294 295 294 294 293 295 296 297 297 296 296 296 295 294 294 295 295 295 295 294 294 295 294 293 294 294 295
298 299 300 300 303 304 300 298 301 304 302 304 305 303 301 304 308 310 309 308 305 306 295 290 289 289 292 288 290 291 296 286 294 291 293 290 288 290 292 289 285 289 290 288 288 287 290 296 289 285 285 283 285 291 293 293 293 292 293 294 295 295 295 294 296 296 295 295 295 295 295 294 294 294 294 294 294 295 294 293 293 293 293 292 293 293 294
299 299 302 302 300 293 292 295 302 305 302 302 302 303 302 301 295 295 295 293 296 299 294 296 289 292 294 292 286 294 295 289 294 288 288 291 289 287 290 288 287 288 283 285 287 292 291 289 287 285 285 290 292 293 293 294 294 295 294 295 295 295 295 295 295 295 293 291 291 292 293 293 293 294 293 293 294 293 294 295 295 295 294 294 294 294 294
299 302 302 302 298 292 293 300 304 299 304 303 302 296 292 294 293 290 289 292 292 290 293 294 289 294 293 291 291 297 295 290 289 291 286 291 288 284 289 284 287 288 284 284 286 294 284 285 286 285 284 288 289 291 293 294 294 295 295 295 295 295 295 295 296 295 294 293 294 294 294 292 292 293 294 294 294 295 295 295 295 295 295 295 295 295 295
301 299 295 295 294 296 301 303 299 303 304 295 294 293 288 291 289 286 292 288 288 290 293 288 294 294 296 292 290 289 297 294 287 287 288 288 294 287 287 288 287 286 281 282 284 293 285 280 284 284 283 287 288 293 293 294 293 294 295 295 296 296 296 296 296 297 296 296 296 296 295 295 295 295 295 294 294 293 294 295 295 296 296 295 295 295 295
301 300 298 294 299 302 302 304 304 301 295 290 289 289 288 286 289 290 289 287 287 287 293 293 294 292 293 295 295 289 294 299 296 297 292 287 292 292 287 283 288 284 281 281 287 288 286 284 283 283 284 289 290 292 293 293 293 294 295 296 296 296 296 296 296 296 295 295 295 295 295 296 296 296 296 296 295 294 294 294 295 295 296 295 295 295 296
300 300 302 303 302 303 302 298 295 291 290 291 287 283 286 287 289 288 290 285 285 289 291 294 289 291 291 295 294 295 292 296 294 291 289 285 288 288 284 286 286 282 279 286 288 287 285 280 281 283 287 291 292 293 293 293 293 294 294 295 296 296 296 296 296 296 297 296 296 295 296 296 296 296 296 296 296 295 295 295 295 295 295 296 296 296 296
295 297 301 301 298 294 294 289 290 290 283 284 282 281 285 283 285 285 286 289 291 292 290 297 295 296 296 299 294 296 292 297 292 290 288 285 288 289 285 283 282 279 283 288 287 283 281 280 280 285 290 291 292 293 293 294 294 294 295 296 296 296 296 295 295 295 296 297 297 297 296 296 296 296 297 296 296 295 295 296 296 295 296 296 296 296 296
299 301 297 293 291 290 291 281 289 286 283 284 282 278 281 281 284 286 285 287 290 290 292 291 291 292 287 294 292 289 291 293 293 291 288 289 288 284 283 281 282 286 290 285 284 280 282 284 286 288 290 292 293 293 293 293 294 294 294 295 296 296 296 296 296 295 295 296 296 296 296 296 296 296 296 296 296 295 295 295 296 296 296 296 295 296 297
294 291 291 289 287 288 286 278 288 285 280 282 284 284 284 282 285 287 287 291 294 291 294 295 294 293 289 293 294 292 292 288 292 288 284 287 284 285 283 281 285 286 283 280 282 283 282 282 288 290 291 290 292 293 294 294 294 294 294 295 295 296 296 295 295 295 295 295 295 295 295 295 295 295 295 296 296 296 296 295 296 295 296 295 295 295 296
290 289 288 282 276 284 285 282 282 280 285 287 285 288 288 290 290 290 293 296 294 293 292 294 295 293 290 293 289 288 291 290 287 286 287 287 283 280 285 288 287 282 280 282 279 279 281 285 288 289 291 291 292 293 294 294 295 295 295 294 294 295 295 296 295 295 295 295 295 295 295 295 295 295 295 296 296 296 296 297 297 296 296 295 295 295 295
290 290 290 288 282 285 287 282 283 286 289 289 291 292 292 293 294 294 294 296 295 296 296 297 295 294 290 289 289 289 290 290 285 286 289 283 281 283 287 284 278 280 277 277 278 281 284 287 289 289 292 292 293 293 294 294 294 294 295 295 295 295 295 295 295 295 295 296 296 296 295 295 295 296 296 296 296 297 296 297 297 297 296 295 296 296 296
287 289 289 281 279 284 282 285 291 290 291 293 292 292 292 294 293 292 294 297 297 296 294 293 290 291 290 293 294 288 288 289 285 285 287 284 286 283 281 279 280 281 282 280 281 285 287 288 290 291 293 293 293 293 293 294 294 295 295 295 295 295 295 295 295 295 296 296 295 296 296 296 296 296 295 296 296 297 297 297 297 298 297 297 296 296 295
290 288 285 285 286 286 287 290 289 288 290 292 292 292 292 293 292 293 295 297 296 295 296 294 291 291 287 290 288 286 284 288 283 282 285 284 281 277 278 276 277 277 282 285 286 287 289 290 292 293 293 293 294 294 294 295 295 295 295 295 295 296 296 295 296 296 296 296 296 296 296 296 296 296 296 296 295 296 297 298 298 297 297 297 296 296 295
289 287 288 287 286 287 291 291 290 287 289 290 291 291 293 293 292 293 297 296 296 295 294 293 293 290 288 288 284 286 285 287 286 285 283 280 281 281 281 277 279 281 283 286 287 289 290 292 293 292 293 293 294 294 294 295 294 295 296 296 296 296 296 296 296 296 296 296 296 296 296 296 296 296 296 296 296 297 297 297 297 297 297 297 297 296 295
291 290 289 291 288 286 288 284 285 286 287 288 290 291 292 292 292 292 297 296 296 293 291 288 289 288 286 285 283 280 282 288 285 283 283 282 284 283 281 280 283 286 287 290 291 291 292 293 292 292 293 293 294 295 295 295 295 295 296 296 296 296 296 296 296 296 296 296 297 292 295 296 296 297 297 297 297 296 296 296 296 297 297 297 297 297 296
288 286 287 289 293 292 292 292 292 291 291 292 292 294 295 293 294 294 297 297 294 290 288 290 288 286 283 281 284 287 287 286 283 283 281 284 286 283 283 285 286 288 289 289 291 292 292 293 294 292 294 294 294 295 295 296 296 296 296 296 296 296 296 296 296 296 296 296 296 296 297 297 297 297 297 296 296 296 294 295 296 297 297 297 297 297 297
Wind_Speed
13 13 14 14 15 16 16 16 15 12 11 7 1 3 4 6 2 4 2 4 5 6 1 2 2 3 2 2 3 0 4 4 0 4 3 5 4 4 6 5 5 5 5 2 4 4 5 5 4 1 4 3 5 4 2 2 3 7 2 5 4 3 3 8 9 9 4 5 5 3 2 3 6 7 6 5 10 9 9 9 4 4 4 6 5 6 2
12 13 13 14 15 16 16 16 15 14 9 6 5 4 4 4 5 5 3 3 5 5 2 3 1 1 3 1 1 2 3 3 3 5 2 4 3 5 3 4 6 5 2 5 6 3 3 1 2 4 3 1 6 6 3 3 5 6 5 6 8 6 7 8 6 7 7 6 6 7 5 5 5 2 2 3 4 5 3 6 3 5 7 9 6 4 3
12 12 13 14 15 16 16 16 15 15 12 8 6 3 4 5 3 4 4 4 4 2 2 2 0 2 2 1 1 1 4 1 5 5 3 2 4 3 5 3 3 4 2 6 6 6 6 6 4 5 3 3 4 7 5 1 2 1 5 2 8 7 3 8 9 9 11 10 11 10 9 9 4 2 2 2 3 5 7 7 7 7 8 9 7 2 3
11 12 13 14 15 16 16 15 14 13 10 6 7 4 4 6 3 3 4 2 2 1 1 2 2 2 2 2 2 0 2 4 2 3 3 2 3 5 5 4 4 6 5 7 8 7 5 7 2 3 1 3 4 7 6 5 4 7 8 3 6 3 1 5 5 6 6 3 2 5 2 7 7 5 3 3 1 2 6 4 5 8 4 6 6 9 11
12 13 13 14 15 16 16 15 12 11 8 4 5 4 3 1 2 4 4 3 3 1 2 2 2 1 2 0 2 1 1 0 4 1 4 4 3 2 2 2 3 2 4 6 7 6 5 6 8 4 4 3 3 4 6 6 8 6 1 5 2 2 4 1 3 3 2 3 3 4 3 5 5 3 4 3 3 1 5 6 4 5 3 8 8 16 14
12 13 14 14 15 16 15 15 11 9 8 5 4 4 2 3 2 1 4 3 3 4 3 1 2 3 4 3 1 2 1 2 2 5 1 0 1 2 4 3 1 3 4 4 4 4 5 4 3 2 1 3 3 2 5 5 9 3 1 1 2 4 5 3 2 3 5 5 5 4 7 8 7 7 6 6 5 2 4 2 4 7 4 3 6 11 12
12 13 13 14 15 15 15 14 11 7 4 4 4 3 3 2 3 2 1 3 2 4 6 1 1 3 2 3 1 3 2 4 3 2 2 4 2 3 1 2 4 3 1 3 5 2 6 2 2 3 2 1 1 3 8 5 10 10 2 1 1 3 0 2 3 3 8 7 3 1 6 8 9 9 8 7 7 7 7 6 7 5 3 6 11 15 12
12 13 13 14 15 15 15 14 12 5 2 4 5 4 3 5 4 5 2 1 4 3 3 3 4 3 0 1 4 2 3 3 2 2 1 1 2 1 1 1 1 3 3 1 0 4 5 4 1 5 4 2 2 4 2 3 4 5 6 3 3 2 2 8 5 1 2 3 4 1 6 7 11 9 8 6 4 7 6 4 6 4 10 12 13 13 9
12 13 13 14 15 15 15 14 13 3 3 3 4 2 1 2 3 1 5 4 3 3 3 4 3 3 3 2 3 1 2 3 3 2 2 0 1 2 1 3 3 2 1 2 4 5 5 4 5 5 3 3 5 5 3 2 0 1 4 4 2 6 3 8 6 5 2 1 4 3 4 7 12 10 10 8 5 2 5 4 5 3 4 8 9 7 5
12 12 13 14 15 14 15 14 12 6 4 4 3 2 2 1 1 3 3 2 0 3 3 1 4 2 2 3 2 2 3 2 2 1 3 1 2 2 2 2 5 4 4 1 4 6 7 7 6 4 2 1 2 3 1 2 2 2 2 2 2 4 6 6 7 6 5 5 4 4 3 4 5 7 8 8 4 3 4 5 7 5 6 6 4 5 7
12 13 13 14 15 15 15 14 12 9 6 3 4 0 2 1 3 4 4 2 2 2 3 3 4 4 2 1 2 1 3 2 2 3 1 2 2 1 2 4 5 4 3 4 4 6 7 4 2 2 3 3 6 6 6 7 6 0 1 5 3 3 5 4 6 4 5 7 3 2 4 8 2 3 5 8 7 4 1 5 6 8 4 4 6 10 10
12 12 13 14 15 15 15 13 13 8 6 3 4 3 2 3 3 2 2 2 3 1 3 2 2 4 2 2 2 3 4 3 4 3 5 2 1 2 4 2 4 2 6 4 6 4 2 4 5 4 5 7 7 9 11 11 5 6 6 4 3 4 8 3 3 3 4 5 5 4 6 2 3 3 6 5 6 9 9 6 7 7 8 10 13 12 10
12 12 14 15 15 16 15 14 13 11 8 3 3 2 2 3 3 2 2 1 3 3 2 4 3 2 1 2 3 4 5 5 5 5 6 6 3 3 3 3 4 4 5 7 7 4 4 6 6 6 8 8 8 12 13 13 10 6 2 5 5 3 3 2 1 2 5 5 6 5 2 2 1 3 6 6 2 5 1 6 7 6 4 8 11 11 11
12 13 13 14 15 15 15 15 14 12 9 4 3 3 1 2 3 2 2 1 2 2 3 2 4 2 1 2 4 5 5 5 3 2 4 4 5 3 0 1 4 5 6 5 3 5 3 4 2 4 7 6 4 4 8 12 13 10 10 5 1 5 4 3 2 1 1 1 2 5 6 4 1 2 5 7 4 7 4 2 3 4 1 6 11 12 12
12 13 13 14 15 15 16 15 15 13 11 5 4 2 2 2 3 4 1 3 2 2 2 1 2 2 1 0 2 4 3 1 3 4 3 2 4 1 3 4 5 4 2 4 4 6 5 2 4 5 4 6 6 4 3 3 5 8 8 8 5 1 3 3 1 2 1 5 7 6 5 4 4 3 2 3 5 5 6 4 2 3 4 7 11 13 13
12 13 13 14 15 15 16 15 14 14 13 10 3 2 1 2 2 3 2 1 3 3 3 3 2 1 1 2 2 4 2 1 1 2 5 5 3 2 3 2 2 3 4 4 2 4 2 3 4 4 3 1 2 4 1 3 3 4 7 9 7 10 5 1 2 2 2 3 3 2 2 5 4 7 7 6 4 4 3 3 2 3 5 9 10 12 12
12 13 14 14 14 16 16 15 14 13 11 9 3 1 1 1 3 2 1 3 3 5 4 2 1 3 3 3 3 0 3 2 4 2 1 3 2 0 2 4 2 2 3 1 0 3 3 4 3 3 4 3 1 3 5 3 2 4 6 1 6 2 3 1 2 2 0 0 2 4 4 4 7 9 9 9 2 4 3 3 3 3 6 8 10 12 13
12 13 14 14 14 15 16 15 15 13 12 9 5 2 2 1 2 4 2 6 6 6 5 1 4 1 4 3 3 2 2 2 3 2 2 2 2 1 3 2 3 3 3 3 1 1 1 1 2 2 2 4 2 3 2 2 3 3 4 5 3 4 3 4 3 3 4 5 6 5 5 4 9 11 12 8 3 2 3 2 4 5 7 8 10 11 10
12 13 14 14 15 15 16 16 16 16 13 12 5 4 3 3 1 4 1 4 5 5 5 4 3 5 3 1 2 1 3 4 3 2 0 3 2 4 4 2 2 2 3 2 3 2 1 1 1 2 2 3 1 4 2 1 3 2 7 2 5 4 2 4 3 4 3 2 4 6 6 3 11 12 9 7 5 1 3 4 3 5 7 9 10 11 8
13 13 14 14 15 16 16 16 17 16 15 14 8 3 3 2 2 3 1 8 6 8 5 4 1 8 2 5 5 3 1 3 3 3 3 2 3 2 4 3 4 3 5 5 4 2 2 2 2 0 3 4 4 1 6 5 3 5 3 1 2 3 2 4 4 1 1 1 4 3 4 5 15 17 3 10 3 4 3 6 3 5 8 10 9 7 6
13 14 14 14 15 16 17 16 17 16 15 14 8 1 4 2 3 2 3 5 8 8 6 3 0 7 5 6 6 4 5 5 6 5 4 3 3 2 1 2 3 1 1 1 2 4 2 3 2 2 2 2 3 3 7 7 10 7 6 7 9 4 1 4 5 6 3 6 5 4 4 8 11 10 5 5 3 7 7 5 6 6 8 8 7 8 9
13 13 14 14 15 16 16 17 17 16 15 14 9 3 6 3 2 3 3 3 4 5 6 3 2 4 5 5 3 4 6 6 5 5 5 2 4 4 3 2 2 1 2 2 4 3 2 3 4 4 6 4 2 5 3 4 7 6 7 4 4 11 9 5 6 6 5 5 4 2 4 6 6 7 5 5 6 6 5 3 6 7 6 6 8 10 11
13 13 14 14 15 16 16 16 16 16 16 15 9 0 5 3 2 2 2 9 5 5 2 3 3 3 5 4 2 4 4 3 4 3 4 5 1 3 3 2 4 2 0 3 4 6 6 6 6 6 7 6 5 7 9 9 7 7 8 10 8 5 6 7 9 10 13 11 7 4 5 7 8 8 7 7 8 9 10 11 10 9 7 7 10 11 13
12 13 14 14 15 16 16 16 16 16 16 14 8 1 4 2 2 1 5 5 5 8 7 7 5 5 8 8 6 4 4 4 5 4 4 3 2 3 4 4 1 3 3 4 4 3 5 4 5 5 8 3 1 7 6 9 9 9 9 8 8 8 4 5 5 6 3 6 7 7 8 7 7 8 10 11 10 9 10 12 10 9 9 9 9 13 12
12 13 14 14 15 15 16 16 15 16 15 14 7 0 1 3 3 3 2 4 1 1 5 5 7 5 5 4 4 4 6 5 3 3 1 3 4 5 5 4 3 4 6 3 2 2 3 5 5 5 9 3 4 7 5 7 6 2 7 7 6 7 4 11 12 13 8 5 7 9 10 11 10 7 7 8 9 11 11 10 11 11 10 8 8 8 9
11 12 13 14 15 15 15 15 15 15 15 15 10 2 3 4 2 3 0 5 4 3 5 7 8 5 5 8 9 6 7 6 4 3 4 4 6 7 7 3 4 1 3 0 1 5 6 6 6 6 8 7 6 8 9 9 9 8 9 7 6 1 4 4 7 10 11 11 11 12 14 15 14 13 10 8 9 11 12 12 12 12 12 9 10 9 7
11 12 13 14 15 15 15 14 14 14 14 13 6 4 4 4 4 4 2 2 5 5 4 7 6 7 8 11 5 5 6 5 5 6 6 5 4 3 3 5 6 5 7 8 7 6 6 7 8 10 9 7 5 9 8 8 8 7 8 7 3 4 10 8 7 8 7 5 6 2 5 9 11 13 13 13 12 14 14 14 14 12 11 9 9 9 8
10 12 13 14 14 14 14 14 13 12 12 10 4 4 4 5 4 4 3 3 5 3 6 7 7 6 4 11 8 8 8 8 8 9 9 9 8 6 5 5 5 5 5 7 8 7 9 12 11 5 5 6 8 8 7 8 8 9 9 8 7 6 4 2 3 4 7 8 9 10 12 12 11 12 11 11 10 12 14 13 12 11 9 8 8 7 6
10 11 12 14 14 14 14 13 13 11 11 8 2 1 3 4 3 4 4 2 4 5 5 6 4 3 3 4 6 8 9 10 11 10 10 11 12 11 10 9 9 8 10 9 8 8 7 6 3 5 4 4 2 7 6 8 9 10 8 8 7 6 4 9 13 15 13 12 11 9 10 12 12 11 11 11 10 12 14 12 11 9 7 6 7 7 6
10 11 13 13 14 14 14 13 13 12 12 4 3 3 4 4 3 5 5 5 4 1 4 5 6 3 1 2 7 9 9 10 11 13 14 11 11 9 9 9 9 9 8 6 6 9 7 6 3 4 3 5 1 5 7 8 10 10 9 9 7 6 7 7 5 10 11 9 10 11 12 12 10 10 10 10 10 11 11 11 10 9 7 6 6 5 4
10 12 13 13 14 14 14 13 12 12 10 3 3 2 4 5 3 4 7 5 3 2 3 3 6 3 3 2 3 9 8 8 8 9 10 8 9 9 7 8 9 6 8 7 7 7 3 6 3 3 2 6 3 5 7 8 10 10 10 9 9 9 9 10 11 12 11 10 11 10 10 10 8 9 9 8 9 9 10 10 9 9 9 8 6 5 4
10 11 13 13 14 14 14 13 12 11 4 2 2 3 3 3 3 6 7 5 4 3 4 6 3 3 4 2 4 4 5 3 2 5 6 5 8 7 10 9 7 8 6 6 5 5 6 4 5 7 7 5 4 8 8 10 10 10 9 9 8 9 10 11 11 10 10 10 10 10 9 8 6 7 8 8 7 7 9 9 9 9 8 7 7 6 6
10 12 13 14 14 14 13 11 9 7 3 3 2 3 5 2 5 6 4 4 2 3 3 1 3 2 1 5 1 5 6 2 5 5 8 6 5 4 6 5 6 7 9 3 4 3 2 5 6 8 5 3 5 7 10 10 11 9 9 9 9 10 10 10 10 9 8 5 3 6 7 7 8 9 9 7 7 6 7 8 8 7 7 8 8 8 7
11 12 13 14 14 13 12 10 7 4 5 3 2 4 4 9 4 3 5 2 2 1 1 1 3 3 5 3 3 5 7 3 5 3 6 5 4 2 6 6 7 5 7 7 4 5 4 5 7 7 5 7 6 7 9 10 10 10 9 9 8 8 8 9 8 8 6 6 6 7 8 8 7 7 7 7 6 5 4 5 6 6 6 6 6 7 8
12 13 13 14 14 12 10 7 3 2 1 3 3 2 5 8 6 6 4 2 2 2 1 1 0 5 4 2 4 4 5 2 5 4 5 5 4 5 4 4 3 5 3 2 4 5 5 3 2 4 7 7 6 7 7 10 10 10 9 9 7 7 8 8 7 6 5 5 6 6 6 6 7 7 7 7 6 5 5 5 3 3 4 4 4 6 6
12 13 14 13 12 8 4 5 2 2 3 2 3 3 5 8 6 2 2 2 3 2 2 2 2 4 3 6 5 2 3 6 3 2 4 0 5 4 3 5 7 5 3 1 6 4 4 2 2 6 2 5 6 6 7 8 10 9 8 8 5 5 6 6 6 5 4 4 5 5 5 4 4 5 5 4 5 5 4 3 4 2 1 2 3 4 4
13 14 14 11 6 4 2 1 1 2 3 3 5 10 11 7 2 3 2 2 3 4 1 3 3 3 3 5 2 2 3 4 0 3 3 3 4 1 2 4 6 0 1 4 4 4 4 4 1 6 5 7 7 5 5 4 6 7 7 5 4 4 4 4 2 3 5 6 5 4 4 4 4 3 3 3 2 3 3 2 1 1 1 1 2 2 2
12 10 5 4 4 2 2 2 2 3 6 5 5 3 2 3 2 2 1 1 2 3 1 2 3 4 1 2 4 2 3 4 3 2 2 1 1 3 1 3 2 1 5 4 4 2 1 2 4 7 6 6 6 5 5 4 4 4 4 3 2 1 1 1 1 3 4 5 4 4 3 3 2 3 2 2 2 2 3 2 1 2 2 2 1 2 2
7 3 3 2 3 2 1 4 3 3 3 2 3 1 2 1 1 2 1 0 1 2 1 1 4 2 3 5 5 3 3 1 3 2 3 2 1 3 1 2 1 1 4 3 3 4 3 4 4 6 7 6 7 6 4 5 5 5 5 5 4 3 2 1 2 3 3 1 2 2 2 1 2 3 2 1 1 1 1 2 2 3 3 3 2 3 2
4 5 3 3 1 3 3 4 3 2 3 1 0 1 2 0 1 2 0 2 2 2 1 2 2 2 4 2 6 4 2 3 1 3 3 3 3 1 2 1 2 1 4 2 4 3 2 5 2 5 7 5 6 6 6 6 7 6 5 5 4 3 2 2 2 1 1 2 3 2 2 1 1 1 1 2 2 2 0 1 2 2 2 1 1 2 3
2 2 2 2 4 3 2 1 1 2 1 2 2 0 1 2 1 1 1 2 1 2 2 3 4 3 2 1 1 4 2 2 3 3 2 3 1 2 2 2 0 1 2 2 2 1 1 4 4 4 6 7 8 7 7 6 7 7 5 5 5 5 5 4 3 2 1 2 3 2 3 3 2 1 1 1 1 2 2 1 1 1 2 2 3 3 1
3 3 3 2 2 1 2 2 0 1 1 1 1 1 1 1 1 1 1 2 3 3 4 3 4 5 5 3 4 3 3 2 1 0 1 2 1 1 3 2 1 1 3 2 1 2 2 4 3 4 6 9 9 7 7 7 7 7 6 6 5 5 5 6 5 4 1 1 2 2 2 3 3 1 1 0 1 1 2 2 3 3 2 2 2 2 3
4 4 3 2 4 1 1 2 1 1 1 1 1 2 1 2 2 3 3 0 0 1 3 2 4 4 3 2 4 5 2 1 1 1 0 2 1 1 1 2 1 2 2 2 2 2 3 4 4 5 9 9 9 7 7 7 7 6 6 5 5 4 4 5 5 5 4 3 2 2 4 5 4 3 2 1 2 2 3 2 2 2 3 2 2 2 3
1 3 2 2 2 1 1 2 0 0 1 0 2 4 3 3 4 2 2 4 3 3 5 7 7 6 4 1 1 4 2 3 0 1 2 1 1 2 1 2 2 3 1 3 2 4 2 2 2 6 10 9 6 7 8 7 6 6 5 5 4 4 4 4 3 4 5 4 4 4 4 4 4 3 1 1 1 1 1 2 2 2 3 2 3 3 3
3 2 2 2 1 0 0 1 1 1 3 3 2 2 4 5 6 5 2 4 5 7 7 5 7 5 5 3 0 2 2 2 1 1 2 2 2 1 1 3 2 2 2 4 2 2 1 4 3 8 11 10 9 8 7 7 6 5 5 5 4 4 4 4 4 4 4 3 3 3 3 2 1 2 1 2 1 1 1 0 3 3 3 3 3 4 4
3 4 4 3 2 2 1 1 1 3 1 2 2 3 5 2 6 5 5 2 6 8 8 7 6 7 5 1 1 2 2 2 2 2 0 1 2 2 2 1 1 2 1 2 4 4 4 4 7 7 11 11 10 9 8 7 6 5 4 4 4 4 4 4 4 4 4 3 2 1 2 1 1 1 2 2 1 1 0 0 1 2 2 3 3 5 5
1 0 0 0 2 1 1 2 3 0 1 4 1 1 1 4 5 6 4 2 7 7 7 5 4 4 5 3 3 2 1 1 2 1 1 2 2 2 0 1 3 2 4 4 4 3 2 4 6 8 10 10 10 9 8 7 6 5 3 4 3 3 3 3 3 3 3 2 2 1 1 0 0 1 2 4 2 1 0 1 2 2 3 4 3 3 5
2 0 1 2 3 3 4 1 2 2 1 1 2 1 1 2 6 6 4 2 7 8 9 7 7 5 4 1 2 3 3 1 2 2 1 2 2 1 1 1 1 1 1 2 4 2 2 5 7 8 10 9 9 9 8 7 6 5 5 4 3 3 2 2 2 2 2 1 1 0 1 1 1 2 2 2 3 2 2 2 2 3 4 5 5 5 6
1 1 1 1 1 1 1 3 4 3 3 2 2 3 4 5 5 6 5 5 7 7 5 5 4 3 3 0 2 3 2 1 2 2 1 2 1 3 3 3 3 3 3 2 1 3 3 6 10 10 9 8 8 7 7 6 6 6 5 4 3 2 2 2 2 2 1 0 1 1 1 1 2 2 2 2 3 2 0 0 1 1 2 3 5 5 6
1 2 1 1 2 1 1 2 3 3 4 4 4 5 4 6 7 6 4 6 6 7 6 5 2 1 2 2 2 1 2 1 1 2 2 3 1 1 2 2 3 1 3 3 2 3 5 9 10 9 9 8 7 7 7 6 5 4 4 3 3 2 2 2 2 2 1 1 1 1 2 2 3 2 3 3 3 2 3 3 3 3 3 3 4 5 5
1 0 1 2 1 2 5 4 4 4 4 6 6 6 6 7 8 7 3 5 8 6 4 3 2 2 3 1 2 3 1 1 2 3 2 2 2 2 2 2 3 2 3 3 3 5 8 10 8 8 8 8 7 6 5 6 6 4 4 3 3 2 3 2 1 0 0 0 0 2 3 2 2 3 2 2 3 3 4 4 4 4 4 4 4 5 6
2 2 2 2 0 1 2 2 1 2 4 5 6 4 4 8 7 7 2 4 7 5 3 2 2 2 1 2 1 2 2 1 1 1 2 1 1 2 2 0 3 3 4 5 5 6 7 6 8 8 8 7 7 6 5 5 5 4 4 3 3 3 3 2 1 1 1 0 1 1 1 1 1 2 2 3 4 5 5 4 2 3 3 3 3 3 4
Wind_Direction
339 332 328 328 328 330 331 331 331 330 333 319 16 287 224 220 97 61 151 166 252 267 198 116 200 230 47 14 214 249 224 273 80 269 197 237 214 246 234 254 266 232 268 301 290 317 291 296 267 317 256 87 44 46 335 227 239 249 143 181 115 98 223 219 236 231 210 173 145 158 188 239 220 214 249 241 231 231 235 250 293 237 196 230 218 232 106
336 329 326 328 330 333 332 333 331 330 333 302 284 251 219 139 139 132 126 213 278 264 210 190 166 118 123 279 325 163 316 282 235 236 198 256 174 233 237 240 233 289 301 287 277 337 302 197 301 221 247 111 36 44 28 208 215 230 174 231 145 200 212 243 216 215 226 198 192 189 173 221 236 187 129 310 284 268 252 270 234 245 247 246 240 245 113
333 327 328 333 335 336 335 333 327 333 322 255 221 245 165 139 105 114 137 198 253 266 13 295 162 94 57 337 159 269 203 183 300 304 267 223 260 265 227 279 342 269 282 273 277 270 255 273 267 318 290 82 62 40 22 319 273 19 22 5 153 229 189 200 224 215 211 201 201 205 195 205 130 126 132 47 286 231 217 225 217 248 216 217 233 159 147
332 333 334 336 339 338 338 334 332 346 346 188 200 269 218 180 163 147 153 180 203 91 339 319 297 129 137 128 61 256 300 145 185 251 244 290 259 260 301 284 273 271 272 261 250 246 216 243 265 286 210 147 76 32 36 46 76 45 26 1 193 188 94 243 283 291 270 281 325 37 351 152 204 127 79 51 34 307 270 280 245 233 197 227 244 136 142
338 337 336 340 341 339 339 338 341 359 347 311 281 259 272 223 201 157 173 158 223 183 191 162 229 108 315 253 358 27 22 256 144 231 234 131 314 239 229 336 292 253 268 264 264 259 246 221 260 255 276 39 24 32 40 75 49 357 358 20 97 154 201 168 318 20 50 330 26 40 6 147 95 122 69 49 23 255 236 230 253 5 301 235 124 139 140
339 336 339 341 341 341 341 338 344 5 325 302 280 220 187 219 85 275 25 284 142 181 162 167 107 81 260 88 263 24 35 87 124 164 205 193 269 246 159 237 42 281 280 276 261 238 247 234 247 258 215 238 69 149 35 62 25 354 91 334 217 197 212 75 316 53 33 39 67 87 81 76 85 74 54 50 31 93 198 310 11 318 234 284 139 138 123
340 339 340 341 341 343 342 340 349 4 328 242 265 242 116 329 90 79 5 254 98 17 77 132 127 105 2 107 349 53 28 74 67 351 149 189 142 308 166 257 24 18 327 253 237 346 249 178 61 10 15 24 162 58 316 6 32 11 8 356 150 134 337 55 31 34 20 9 42 119 120 111 85 63 54 48 47 51 46 51 10 345 350 115 124 96 88
344 342 341 342 343 345 345 342 351 19 327 245 254 260 227 177 192 147 197 76 108 123 165 167 206 141 4 226 53 357 18 57 68 144 296 136 146 248 212 316 13 30 44 18 148 39 10 355 332 28 323 174 305 146 118 275 25 16 329 306 167 212 152 141 158 196 13 348 358 33 139 124 94 69 54 43 72 70 54 56 28 46 89 90 104 106 90
342 342 342 344 346 347 348 347 352 26 247 216 244 201 329 9 354 21 175 158 109 157 179 193 193 168 173 194 116 262 62 37 354 326 284 335 39 22 0 342 266 180 68 52 63 32 355 310 295 301 328 356 26 325 119 4 86 12 216 234 240 252 134 175 183 190 138 195 144 214 133 115 96 72 46 36 27 56 32 43 8 351 127 139 131 123 120
343 343 344 345 347 349 350 351 350 358 231 278 285 230 90 220 81 281 248 152 119 222 127 183 220 174 43 0 51 330 38 22 332 286 193 248 36 24 315 310 282 224 243 258 18 349 325 306 301 308 287 315 27 44 54 80 57 7 333 293 184 244 164 181 189 215 157 132 175 128 196 173 162 48 13 358 42 68 97 67 34 21 328 166 200 109 122
345 344 343 346 348 351 351 353 350 352 313 271 286 67 180 230 161 177 238 164 154 227 210 156 241 60 138 109 297 251 292 330 317 288 127 200 158 44 309 285 270 258 243 34 18 314 311 294 269 200 225 192 131 125 135 98 68 12 3 301 133 221 225 212 181 239 127 156 141 193 211 218 138 33 4 8 25 350 91 51 22 13 13 55 67 121 124
345 342 344 347 349 350 352 352 352 0 334 293 289 303 10 329 275 231 205 204 116 191 248 65 35 126 208 110 298 310 314 321 321 319 284 338 5 283 274 272 266 247 47 351 317 330 121 149 157 177 181 143 120 102 82 76 105 198 198 247 319 215 208 208 162 223 151 148 142 152 214 120 113 100 31 5 24 53 75 77 44 50 78 103 107 113 119
344 343 345 347 348 350 351 353 354 357 359 300 256 296 61 324 299 272 250 271 145 183 189 127 102 67 26 307 282 284 296 298 277 276 272 275 270 229 252 297 289 26 346 327 319 251 202 145 155 164 162 164 128 86 68 60 53 45 170 230 263 223 195 124 114 59 114 166 182 207 94 98 103 38 31 7 237 6 150 80 54 44 69 115 116 114 113
346 345 347 347 348 349 351 353 356 357 5 322 249 283 344 275 271 210 212 218 114 83 14 141 183 168 235 286 301 291 278 248 250 244 244 204 252 284 1 290 359 332 313 299 274 236 209 187 142 203 175 174 191 163 93 79 58 30 1 358 224 298 248 174 116 323 194 138 112 77 126 144 80 67 13 14 4 342 342 35 77 49 123 134 129 127 126
349 347 348 347 348 349 352 354 355 355 2 343 261 262 251 235 279 304 61 281 124 124 229 292 51 35 279 337 316 281 204 239 246 179 157 106 257 299 333 342 332 307 261 247 211 190 220 213 178 212 176 188 203 160 168 97 85 55 355 355 357 78 266 46 243 148 229 148 132 147 183 138 84 67 21 317 322 308 281 274 106 85 111 140 137 137 139
350 349 348 347 347 350 352 355 356 356 360 343 265 314 54 353 301 285 284 200 172 154 69 35 354 267 206 102 8 344 358 293 311 264 191 179 187 151 131 0 349 300 258 245 237 203 220 209 246 229 194 174 85 124 155 118 114 53 29 359 31 351 323 125 276 133 208 198 169 122 94 66 41 15 350 342 314 293 236 251 148 106 140 147 141 137 144
351 349 348 346 349 350 351 353 355 357 359 353 301 272 61 43 265 295 162 121 66 79 68 62 95 236 209 142 191 199 358 353 345 293 188 140 107 61 111 94 86 9 339 292 42 226 205 215 227 229 100 16 256 112 126 67 50 27 24 9 89 346 1 269 142 132 100 121 89 87 48 72 13 349 343 332 321 213 249 218 104 127 147 151 148 145 148
351 349 348 347 349 349 350 351 353 357 354 351 305 337 55 59 263 274 201 116 109 92 71 10 298 111 58 24 38 41 261 271 222 197 276 66 189 152 41 183 153 90 309 54 0 20 349 280 225 234 102 35 37 285 79 52 71 356 342 349 63 37 48 19 76 106 100 90 101 106 107 70 1 345 332 324 328 246 264 36 38 134 154 150 150 146 151
351 348 348 348 348 348 349 350 355 357 358 355 324 237 92 19 240 264 133 115 118 106 95 57 352 59 62 263 31 10 22 352 318 291 312 174 99 7 304 68 306 134 164 143 137 93 25 17 309 339 109 105 45 56 344 68 57 345 333 64 87 42 45 83 44 40 59 72 91 92 75 37 341 337 325 335 295 248 36 12 319 151 140 146 147 149 153
351 350 349 349 349 349 349 350 355 357 353 355 329 81 57 22 324 305 302 109 102 105 105 86 7 74 53 12 28 9 44 195 358 341 13 24 42 251 189 185 170 208 150 179 148 122 149 171 94 309 82 77 62 92 78 88 69 60 89 175 36 359 352 71 59 35 140 143 111 138 84 40 3 333 283 21 345 41 314 323 101 127 131 143 144 126 114
352 351 351 351 351 350 350 350 354 356 354 353 339 264 107 38 339 323 325 104 116 107 98 103 65 68 33 43 19 356 332 349 337 350 21 10 8 276 221 75 71 290 125 232 145 146 136 143 139 74 48 54 129 211 114 116 87 54 39 72 52 326 271 84 74 356 11 56 44 41 4 317 346 356 25 357 339 312 302 297 115 127 137 138 114 104 118
354 353 353 354 351 351 350 351 353 356 354 351 330 268 94 53 39 5 339 359 85 83 91 66 15 49 57 46 22 349 332 319 328 311 306 19 49 14 59 66 45 328 40 284 131 122 113 104 123 122 120 112 205 92 199 105 77 77 38 332 85 19 59 27 67 21 39 60 67 16 3 354 9 9 18 19 3 358 342 57 86 99 77 101 108 112 119
354 354 354 355 353 352 352 352 354 356 355 353 337 264 80 100 85 325 241 99 91 110 149 147 198 133 138 117 77 16 7 0 311 281 270 296 74 49 22 40 96 24 44 315 5 84 107 130 97 103 90 70 90 102 83 76 86 69 68 51 86 82 60 92 88 90 97 73 57 45 34 36 34 41 34 35 40 34 52 65 75 62 72 88 111 117 116
354 354 354 355 354 352 353 354 355 356 355 357 345 12 96 37 2 310 116 100 113 101 73 48 78 38 19 26 14 20 16 11 355 323 329 288 323 114 121 65 7 191 61 27 304 51 86 78 78 105 99 39 54 90 96 93 78 87 92 89 73 73 114 101 93 187 206 58 28 38 35 31 42 57 55 53 49 45 57 71 64 65 60 58 83 115 117
353 354 354 355 353 352 354 355 356 356 355 355 340 28 152 110 30 329 154 134 157 105 94 80 52 31 13 6 10 36 24 347 333 325 271 232 286 1 65 28 348 18 80 50 266 129 115 108 117 99 89 15 317 89 80 111 90 24 105 95 120 95 47 83 70 75 78 108 79 70 64 61 54 49 58 57 56 57 55 64 80 87 82 73 66 77 93
352 354 354 353 354 353 353 355 356 356 355 348 334 31 62 64 341 288 335 69 70 95 104 89 84 57 55 53 35 9 328 335 356 40 47 36 27 56 110 136 100 32 82 94 355 87 91 92 90 95 95 67 30 83 69 63 89 64 75 70 29 20 249 85 106 98 99 101 104 103 86 72 67 68 71 83 88 81 72 67 71 81 81 68 47 38 43
348 353 353 352 352 352 352 353 355 354 354 345 359 51 72 69 22 1 39 121 125 106 103 96 97 86 68 64 40 12 5 7 54 70 70 62 79 90 90 95 95 103 95 84 66 77 76 76 78 80 75 83 65 77 96 94 76 82 75 47 348 128 86 108 121 114 107 108 130 155 86 82 77 79 87 94 99 95 92 88 79 76 72 65 65 48 38
346 350 351 350 350 351 349 349 351 350 351 331 301 48 54 61 41 21 355 340 302 126 128 123 107 101 93 59 26 40 33 46 58 65 66 70 71 63 67 67 66 85 84 94 97 87 88 89 84 87 95 111 93 78 78 87 86 68 57 44 7 69 26 315 90 96 100 94 98 92 95 95 95 97 99 101 106 106 101 99 105 108 106 101 93 81 54
344 347 347 348 347 346 346 345 346 346 341 316 281 246 106 73 64 51 9 307 282 109 103 102 115 110 73 27 343 53 47 50 57 59 65 67 64 67 69 64 68 76 79 75 83 84 80 73 52 69 67 343 24 103 100 78 68 63 45 34 43 52 24 73 91 97 101 109 110 111 104 106 116 115 111 106 103 104 108 115 118 121 115 118 123 131 136
340 342 343 344 343 342 343 342 341 340 331 294 262 204 151 113 57 31 7 334 334 269 130 124 101 87 183 358 32 38 45 45 56 52 52 55 54 55 58 63 65 63 68 73 85 87 79 86 79 75 55 289 76 100 93 89 83 75 68 70 70 79 66 53 85 108 109 103 99 99 106 109 110 105 98 105 118 115 115 123 127 125 132 137 135 141 156
337 340 340 340 340 340 338 339 337 330 311 267 257 170 166 147 96 40 0 332 312 307 95 103 99 132 99 58 3 23 22 44 43 45 40 42 53 52 57 73 52 63 88 76 68 65 78 88 90 80 92 359 339 103 97 96 92 86 73 69 74 83 81 88 92 94 103 104 103 104 105 109 115 113 110 110 110 121 126 129 137 144 147 152 152 153 158
333 335 336 336 336 336 335 334 338 321 306 326 337 11 29 28 29 334 329 308 298 188 122 117 131 122 88 97 48 359 6 13 14 75 52 18 72 55 62 53 67 42 46 71 74 84 57 69 80 87 94 332 326 93 91 92 90 87 89 85 83 87 97 103 105 105 107 109 113 114 111 109 113 102 107 115 113 114 120 127 137 141 158 155 149 153 153
329 332 331 332 331 331 331 327 331 330 60 29 313 204 111 27 326 300 313 289 234 40 334 91 90 127 135 84 147 45 346 230 85 70 65 8 48 35 71 52 74 64 8 52 49 80 37 93 95 87 46 324 89 86 87 87 92 97 88 88 89 93 96 101 106 108 104 80 50 109 109 105 99 103 114 119 119 115 123 126 129 144 150 149 147 145 146
325 327 327 326 325 326 324 318 302 284 255 235 133 72 53 10 330 16 317 286 66 71 293 105 132 126 108 209 145 61 338 48 70 32 87 29 336 49 80 75 55 72 7 53 93 108 92 96 92 96 93 70 81 90 87 96 106 108 104 97 98 105 110 112 109 98 83 82 84 83 100 106 113 116 130 127 120 115 119 129 142 136 123 124 132 145 149
322 322 323 320 319 317 308 294 244 221 94 89 88 81 5 353 335 294 303 298 185 136 132 70 169 129 134 134 100 75 344 305 87 24 78 73 353 53 83 81 67 82 57 306 83 76 92 47 327 104 84 95 88 87 102 114 110 112 112 109 108 118 125 114 103 86 83 95 106 104 107 125 137 135 128 138 141 143 143 139 134 136 131 123 133 148 161
318 317 316 314 308 291 254 224 262 160 148 93 80 25 350 310 292 281 323 6 341 130 138 123 213 134 144 126 115 98 276 91 76 89 59 156 100 25 40 93 88 51 300 353 98 92 83 347 275 105 113 94 76 92 99 102 110 105 105 106 99 75 67 74 101 109 95 95 102 105 117 121 113 114 127 136 148 160 159 161 161 183 109 131 149 158 180
313 315 307 292 273 195 168 89 63 332 38 3 330 319 294 282 230 226 225 210 76 336 77 156 151 102 9 91 90 104 262 123 249 107 57 67 80 13 47 91 82 56 146 88 74 78 70 289 106 99 92 100 98 67 76 70 94 103 101 97 101 97 101 77 69 118 131 133 139 141 127 121 120 137 143 152 159 174 176 173 167 235 237 129 161 195 194
314 303 276 188 181 151 131 146 86 17 323 295 281 256 159 233 154 130 134 95 16 291 79 294 94 106 251 188 110 36 274 104 285 113 104 33 151 87 14 66 55 263 106 82 73 336 17 52 88 101 90 78 83 82 79 76 77 54 59 65 72 55 350 13 186 206 156 150 160 158 141 127 118 131 155 167 219 216 231 235 216 231 246 243 186 182 189
266 234 219 217 200 144 89 97 39 334 281 207 247 247 111 331 165 137 76 12 203 132 29 290 116 154 147 107 89 50 354 114 142 158 140 26 324 114 267 128 117 219 116 135 110 260 125 107 120 126 121 129 126 101 103 102 94 80 71 63 48 41 2 16 240 240 237 76 66 51 4 104 133 141 149 116 167 238 263 267 273 269 263 257 222 206 217
189 189 165 167 115 84 72 117 155 246 221 202 119 254 121 303 219 135 238 164 120 74 231 130 45 46 347 97 136 118 22 296 162 134 118 110 338 71 112 91 95 186 135 135 110 274 164 136 144 140 134 145 120 126 125 113 101 89 78 71 62 54 37 38 98 122 91 84 57 91 117 54 26 51 116 127 132 102 142 257 251 252 250 244 33 249 231
196 160 183 124 97 104 94 53 205 231 241 154 124 44 140 135 29 29 194 157 120 103 349 84 148 146 120 274 164 121 111 300 34 17 81 74 31 274 149 100 319 115 134 118 119 224 126 127 167 168 135 136 133 134 126 121 107 103 91 83 71 64 65 73 92 113 184 178 158 127 128 150 149 122 85 61 65 38 41 52 171 174 166 165 179 215 191
15 352 24 40 62 103 175 166 231 136 56 327 136 78 14 72 129 180 243 200 144 143 137 184 164 142 120 46 66 95 111 335 322 178 147 115 23 0 93 122 196 202 137 68 137 190 163 154 171 139 133 134 130 138 140 123 115 108 97 87 78 67 66 70 75 71 25 267 241 213 129 148 124 104 101 166 20 48 106 118 112 129 150 127 134 152 162
209 243 275 183 152 147 247 154 59 284 154 139 105 108 180 174 180 183 153 111 29 225 114 355 74 81 92 230 97 20 56 342 271 115 66 97 159 250 130 120 195 131 89 153 201 156 184 162 181 146 142 141 146 147 135 120 118 109 97 80 74 63 55 62 65 64 62 65 80 141 152 151 130 90 59 81 104 111 106 106 116 125 125 131 153 149 157
151 237 205 151 130 79 241 128 151 107 37 256 178 162 183 174 173 189 186 157 153 137 150 157 160 185 128 357 84 132 150 151 1 86 79 110 206 113 144 153 93 68 138 180 187 178 168 143 160 139 145 139 145 144 137 138 135 129 113 98 85 83 83 85 82 84 84 91 96 108 126 126 125 126 137 93 0 339 0 118 114 108 122 138 152 157 149
174 149 141 140 77 107 215 56 261 220 205 180 225 173 170 184 169 186 156 124 182 142 154 155 163 152 115 117 114 74 299 110 161 224 121 161 107 80 139 110 113 168 184 159 175 141 149 181 135 138 147 149 151 147 144 145 145 127 112 115 99 86 77 75 75 76 75 74 90 122 130 129 161 126 124 117 87 34 312 233 150 170 165 180 163 164 152
179 151 154 119 24 299 283 127 132 210 229 163 193 188 192 159 161 142 77 144 128 136 151 146 136 122 114 83 320 109 142 151 128 56 66 211 138 99 63 85 198 155 149 184 180 191 192 165 155 156 155 153 149 150 153 145 133 133 152 120 106 100 88 80 77 72 68 68 89 112 103 141 151 210 182 160 170 189 218 284 209 230 211 210 190 187 165
120 322 155 100 115 144 250 185 191 83 64 177 160 76 36 71 62 79 100 157 146 129 116 107 102 118 131 135 138 141 137 105 87 89 253 136 92 102 267 211 171 171 175 181 192 190 167 133 139 143 148 147 150 154 156 149 152 151 129 115 128 108 101 91 84 82 78 79 80 134 136 145 223 251 272 256 229 235 299 273 252 248 243 242 231 201 189
151 47 264 174 172 162 186 195 55 115 88 20 70 55 62 132 139 125 119 133 124 136 134 133 132 130 112 63 282 103 116 109 112 95 15 96 122 141 142 173 174 177 237 205 192 188 140 132 140 144 147 149 153 158 158 156 159 162 151 149 138 128 120 106 82 77 59 29 42 65 115 148 272 287 288 304 296 280 268 288 290 261 251 240 228 221 217
53 180 191 102 91 175 165 97 178 160 129 122 125 149 156 168 125 111 124 142 148 135 142 159 141 153 98 93 135 142 128 154 161 125 173 187 173 161 183 174 178 199 192 231 108 125 125 131 133 139 145 151 154 160 157 160 164 167 170 165 144 121 120 98 88 80 87 344 324 309 306 4 309 291 284 271 267 265 160 202 233 234 242 245 243 240 236
176 124 163 163 158 158 96 164 226 156 140 146 164 157 162 134 120 118 142 135 120 123 104 82 64 60 104 175 133 108 127 153 83 149 183 169 140 161 193 172 190 214 147 178 139 121 124 132 137 143 148 152 157 158 154 153 162 179 161 152 146 162 131 113 121 103 54 20 337 344 325 285 266 273 288 304 316 317 264 243 249 250 244 248 256 251 252
329 328 57 349 327 130 159 178 184 161 161 166 162 151 156 141 136 143 175 145 150 148 167 154 133 136 144 126 145 162 126 124 178 175 194 152 154 190 188 183 177 170 106 110 115 127 133 136 144 144 148 151 156 154 151 153 166 165 152 168 159 154 143 161 137 93 58 11 43 255 263 277 321 322 324 294 280 275 263 240 238 250 257 258 254 259 256
184 170 153 142 251 211 187 4 24 133 137 139 136 123 144 129 132 134 188 176 160 176 144 137 159 132 164 167 148 86 115 173 106 152 187 150 197 189 183 98 116 126 126 136 127 128 135 140 136 145 151 140 146 148 148 149 156 156 165 161 164 164 158 152 131 100 47 18 347 326 335 345 316 279 286 279 271 260 258 263 256 255 253 251 243 239 254